DELTA 1 DEB, 42636

Orbit data source: Space-Track

DELTA 1 DEB, 42636 is space debris in SSO originally from a launch on Thu, 12 Jun 1975 UTC launched from the Air Force Western Test Range (AFWTR). Debris objects in space refer to the collection of defunct objects orbiting the Earth. Examples of debris include non-operational satellites, rocket bodies, and fragments generated from explosions, collisions, or faulty payload assembly.

Loading next visibility...
Identifier
42636, 1975-052LV
Orbit
SSO
Country
Flag of USUS
Related business
Manufacturer
Unknown
Mission
Spacecraft
Bus & Motor
Unknown
Mass
Unknown
Launch date (UTC)
1975-06-12 (51 years ago)
Launch vehicle
Unknown
Launch site
Air Force Western Test Range (AFWTR)
Object type
Payload
Rocket body
Debris
Shape & HBR
Unknown shape, 0.1 m
Radar Cross Section
Small (<0.1 m²)

Expand to show TLE details & history
Last TLE update: 5 days ago

TLE from 5 days ago
0 DELTA 1 DEB
1 42636U 75052LV  26163.76222157  .00000226  00000-0  61100-3 0  9991
2 42636  99.6773 351.9145 0130606 175.4715 209.0550 13.22245286605386
Epoch: 2026-06-12T18:17Z
TLE epoch observation values (Epoch: 2026-06-12T18:17:35.943Z)
Latitude
23.47118°
Longitude
172.20271°
Altitude
1,265.415 km
Speed
7.183 km/s
True Right ascension
23h 10m 45s
True Declination
23° 21' 15"
Sunlit
Object was in daylight at epoch
Visualization orbit readout
Latitude
Unknown
Longitude
Unknown
Altitude
Unknown
Speed
Unknown
Apparent Right ascension
Unknown
Apparent Declination
Unknown
Sunlit
N/A
Visualization observer readout
Local Sidereal Time
12:55:34
Azimuth
Unknown
Elevation
Unknown
Doppler factor
Unknown
Orbital elements
Apogee altitude
1,272.122 km
Perigee altitude
1,074.864 km
Semi-major axis
7,551.63 km
Eccentricity
0.01306
Inclination
99.6773°
RAAN
351.9145°
Arg. of periapsis
175.4715°
True anomaly
208.33841°
Mean anomaly
209.055°
Eccentric anomaly
208.69569°
Mean motion
3.30737 °/min
Orbital period
108.85 mins
BSTAR
0.000611
Loading maneuver chart data...
Computing Atmospheric mass density...

Documentation

Showing up to 5 results
|